| time (UTC) | temp F | wind direction | speed MPH | gust MPH | rain 1hr in | rain 24hr in | rain mn in | humidity % | barometer mb |
| 20260903063018 | 78 | 113 | 5.0 | 14.0 | 0.00 | 0.00 | 0.00 | 14 | 1008.3 |
| 20260903061517 | 76 | 107 | 2.0 | 6.0 | 0.00 | 0.00 | 0.00 | 15 | 1008.4 |
| 20260903060018 | 76 | 102 | 3.0 | 7.0 | 0.00 | 0.00 | 0.00 | 16 | 1008.4 |
| 20260903054514 | 77 | 96 | 4.0 | 10.0 | 0.00 | 0.00 | 0.00 | 15 | 1008.6 |
| 20260903053012 | 78 | 108 | 5.0 | 12.0 | 0.00 | 0.00 | 0.00 | 16 | 1008.5 |
| 20260903051509 | 78 | 109 | 5.0 | 11.0 | 0.00 | 0.00 | 0.00 | 17 | 1008.6 |
| 20260903050009 | 78 | 103 | 4.0 | 9.0 | 0.00 | 0.00 | 0.00 | 17 | 1008.6 |
| 20260903044506 | 78 | 98 | 4.0 | 10.0 | 0.00 | 0.00 | 0.00 | 18 | 1008.6 |
| 20260903043008 | 77 | 97 | 4.0 | 9.0 | 0.00 | 0.00 | 0.00 | 19 | 1008.6 |
| 20260903041502 | 77 | 98 | 3.0 | 6.0 | 0.00 | 0.00 | 0.00 | 19 | 1008.5 |
| 20260903040001 | 77 | 92 | 3.0 | 8.0 | 0.00 | 0.00 | 0.00 | 19 | 1008.4 |
| 20260903034600 | 77 | 96 | 3.0 | 7.0 | 0.00 | 0.00 | 0.00 | 19 | 1008.2 |
| 20260903033059 | 78 | 110 | 3.0 | 11.0 | 0.00 | 0.00 | 0.00 | 17 | 1008.0 |
| 20260903031600 | 78 | 116 | 8.0 | 11.0 | 0.00 | 0.00 | 0.00 | 18 | 1007.9 |
| 20260903030059 | 78 | 123 | 5.0 | 9.0 | 0.00 | 0.00 | 0.00 | 20 | 1007.8 |
| 20260903024600 | 79 | 134 | 4.0 | 10.0 | 0.00 | 0.00 | 0.00 | 18 | 1007.7 |
| 20260903023117 | 80 | 132 | 4.0 | 8.0 | 0.00 | 0.00 | 0.00 | 17 | 1007.7 |
| 20260903021555 | 81 | 148 | 5.0 | 12.0 | 0.00 | 0.00 | 0.00 | 16 | 1007.6 |
| 20260903020056 | 82 | 195 | 6.0 | 14.0 | 0.00 | 0.00 | 0.00 | 14 | 1007.5 |
| 20260903014554 | 85 | 179 | 8.0 | 14.0 | 0.00 | 0.00 | 0.00 | 13 | 1007.4 |
| 20260903013057 | 86 | 165 | 9.0 | 19.0 | 0.00 | 0.00 | 0.00 | 13 | 1007.5 |
| 20260903011555 | 87 | 191 | 13.0 | 20.0 | 0.00 | 0.00 | 0.00 | 13 | 1007.5 |
| 20260903010052 | 87 | 181 | 13.0 | 20.0 | 0.00 | 0.00 | 0.00 | 12 | 1007.3 |
| 20260903004552 | 88 | 203 | 12.0 | 18.0 | 0.00 | 0.00 | 0.00 | 12 | 1007.4 |
| 20260903003053 | 89 | 199 | 14.0 | 20.0 | 0.00 | 0.00 | 0.00 | 11 | 1007.5 |
| 20260903001550 | 89 | 207 | 13.0 | 20.0 | 0.00 | 0.00 | 0.00 | 12 | 1007.5 |
| 20260903000050 | 89 | 175 | 12.0 | 20.0 | 0.00 | 0.00 | 0.00 | 12 | 1007.4 |
| 20260902234549 | 89 | 197 | 13.0 | 23.0 | 0.00 | 0.00 | 0.00 | 11 | 1007.4 |
| 20260902233048 | 90 | 170 | 12.0 | 24.0 | 0.00 | 0.00 | 0.00 | 11 | 1007.4 |
| 20260902231557 | 90 | 168 | 14.0 | 22.0 | 0.00 | 0.00 | 0.00 | 10 | 1007.5 |
| 20260902230046 | 90 | 170 | 16.0 | 24.0 | 0.00 | 0.00 | 0.00 | 11 | 1007.7 |
| 20260902224546 | 90 | 164 | 14.0 | 23.0 | 0.00 | 0.00 | 0.00 | 12 | 1007.8 |
| 20260902223044 | 90 | 155 | 15.0 | 27.0 | 0.00 | 0.00 | 0.00 | 10 | 1008.0 |
| 20260902221551 | 90 | 160 | 15.0 | 26.0 | 0.00 | 0.00 | 0.00 | 11 | 1008.3 |
| 20260902220043 | 90 | 179 | 14.0 | 24.0 | 0.00 | 0.00 | 0.00 | 11 | 1008.5 |
| 20260902214545 | 90 | 188 | 14.0 | 24.0 | 0.00 | 0.00 | 0.00 | 12 | 1008.5 |
| 20260902213049 | 90 | 148 | 16.0 | 24.0 | 0.00 | 0.00 | 0.00 | 12 | 1008.6 |
| 20260902211538 | 91 | 187 | 14.0 | 25.0 | 0.00 | 0.00 | 0.00 | 12 | 1008.7 |
| 20260902210040 | 91 | 180 | 15.0 | 24.0 | 0.00 | 0.00 | 0.00 | 13 | 1009.0 |
| 20260902204537 | 91 | 196 | 16.0 | 23.0 | 0.00 | 0.00 | 0.00 | 13 | 1009.0 |
| 20260902203038 | 90 | 179 | 14.0 | 24.0 | 0.00 | 0.00 | 0.00 | 13 | 1009.1 |
| 20260902201533 | 90 | 174 | 13.0 | 22.0 | 0.00 | 0.00 | 0.00 | 13 | 1009.1 |
| 20260902200033 | 90 | 140 | 17.0 | 26.0 | 0.00 | 0.00 | 0.00 | 14 | 1009.4 |
| 20260902194532 | 89 | 174 | 17.0 | 26.0 | 0.00 | 0.00 | 0.00 | 15 | 1009.5 |
| 20260902193030 | 89 | 193 | 18.0 | 24.0 | 0.00 | 0.00 | 0.00 | 15 | 1009.6 |
| 20260902191529 | 89 | 172 | 19.0 | 26.0 | 0.00 | 0.00 | 0.00 | 16 | 1009.7 |
| 20260902190028 | 89 | 146 | 13.0 | 22.0 | 0.00 | 0.00 | 0.00 | 17 | 1009.8 |
| 20260902184525 | 88 | 196 | 16.0 | 24.0 | 0.00 | 0.00 | 0.00 | 18 | 1009.9 |
| 20260902183022 | 88 | 183 | 15.0 | 25.0 | 0.00 | 0.00 | 0.00 | 19 | 1010.1 |
| 20260902181521 | 88 | 129 | 13.0 | 24.0 | 0.00 | 0.00 | 0.00 | 19 | 1010.1 |
| 20260902180018 | 87 | 178 | 10.0 | 21.0 | 0.00 | 0.00 | 0.00 | 21 | 1010.0 |
| 20260902174519 | 87 | 165 | 16.0 | 23.0 | 0.00 | 0.00 | 0.00 | 21 | 1010.2 |
| 20260902173016 | 87 | 144 | 15.0 | 24.0 | 0.00 | 0.00 | 0.00 | 24 | 1010.2 |
| 20260902171513 | 85 | 91 | 12.0 | 20.0 | 0.00 | 0.00 | 0.00 | 31 | 1009.9 |
| 20260902170011 | 85 | 125 | 9.0 | 14.0 | 0.00 | 0.00 | 0.00 | 35 | 1009.9 |
| 20260902164513 | 84 | 161 | 8.0 | 19.0 | 0.00 | 0.00 | 0.00 | 37 | 1010.0 |
| 20260902163009 | 84 | 131 | 8.0 | 15.0 | 0.00 | 0.00 | 0.00 | 39 | 1009.9 |
| 20260902161505 | 82 | 106 | 7.0 | 14.0 | 0.00 | 0.00 | 0.00 | 42 | 1009.9 |
| 20260902160004 | 82 | 106 | 8.0 | 14.0 | 0.00 | 0.00 | 0.00 | 43 | 1010.1 |
| 20260902154504 | 82 | 132 | 8.0 | 12.0 | 0.00 | 0.00 | 0.00 | 42 | 1010.1 |
| 20260902153100 | 81 | 139 | 9.0 | 14.0 | 0.00 | 0.00 | 0.00 | 42 | 1010.1 |
| 20260902151558 | 80 | 110 | 7.0 | 11.0 | 0.00 | 0.00 | 0.00 | 43 | 1010.0 |
| 20260902150057 | 80 | 108 | 5.0 | 13.0 | 0.00 | 0.00 | 0.00 | 44 | 1009.8 |
| 20260902144558 | 79 | 115 | 5.0 | 9.0 | 0.00 | 0.00 | 0.00 | 45 | 1009.8 |
| 20260902143056 | 78 | 98 | 3.0 | 10.0 | 0.00 | 0.00 | 0.00 | 48 | 1009.8 |
| 20260902141554 | 0 | 0.0 | 0.0 | 0.00 | 0.00 | 0.00 | 1009.9 | ||
| 20260902140051 | 0 | 0.0 | 0.0 | 0.00 | 0.00 | 0.00 | 1009.9 | ||
| 20260902134545 | 0 | 0.0 | 0.0 | 0.00 | 0.00 | 0.00 | 1009.8 | ||
| 20260902133039 | 0 | 0.0 | 0.0 | 0.00 | 0.00 | 0.00 | 1009.6 | ||
| 20260902131533 | 0 | 102 | 3.0 | 9.0 | 0.00 | 0.00 | 0.00 | 1009.4 | |
| 20260902130031 | 72 | 105 | 4.0 | 8.0 | 0.00 | 0.00 | 0.00 | 57 | 1009.2 |
| 20260902124529 | 72 | 100 | 2.0 | 8.0 | 0.00 | 0.00 | 0.00 | 58 | 1009.2 |
| 20260902123030 | 72 | 98 | 2.0 | 5.0 | 0.00 | 0.00 | 0.00 | 58 | 1009.1 |
| 20260902121527 | 72 | 92 | 3.0 | 5.0 | 0.00 | 0.00 | 0.00 | 55 | 1009.0 |
| 20260902120026 | 72 | 108 | 1.0 | 4.0 | 0.00 | 0.00 | 0.00 | 54 | 1008.9 |
| 20260902114535 | 73 | 187 | 0.0 | 2.0 | 0.00 | 0.00 | 0.00 | 54 | 1008.8 |
| 20260902113018 | 75 | 100 | 1.0 | 6.0 | 0.00 | 0.00 | 0.00 | 52 | 1008.4 |
| 20260902111513 | 75 | 111 | 5.0 | 9.0 | 0.00 | 0.00 | 0.00 | 51 | 1008.4 |
| 20260902110015 | 76 | 109 | 5.0 | 9.0 | 0.00 | 0.00 | 0.00 | 50 | 1008.3 |
| 20260902104513 | 75 | 122 | 4.0 | 10.0 | 0.00 | 0.00 | 0.00 | 52 | 1008.3 |
| 20260902103012 | 76 | 118 | 6.0 | 10.0 | 0.00 | 0.00 | 0.00 | 53 | 1008.3 |
| 20260902101508 | 76 | 112 | 7.0 | 13.0 | 0.00 | 0.00 | 0.00 | 52 | 1008.3 |
| 20260902100008 | 76 | 113 | 6.0 | 10.0 | 0.00 | 0.00 | 0.00 | 53 | 1008.2 |
| 20260902094506 | 76 | 131 | 6.0 | 13.0 | 0.00 | 0.00 | 0.00 | 54 | 1008.2 |
| 20260902093014 | 77 | 132 | 8.0 | 12.0 | 0.00 | 0.00 | 0.00 | 56 | 1008.3 |
| 20260902091501 | 77 | 111 | 6.0 | 12.0 | 0.00 | 0.00 | 0.00 | 54 | 1008.4 |
| 20260902090059 | 77 | 112 | 6.0 | 13.0 | 0.00 | 0.00 | 0.00 | 51 | 1008.3 |
| 20260902084558 | 77 | 117 | 5.0 | 9.0 | 0.00 | 0.00 | 0.00 | 49 | 1008.4 |
| 20260902083057 | 78 | 139 | 8.0 | 13.0 | 0.00 | 0.00 | 0.00 | 49 | 1008.6 |
| 20260902081555 | 79 | 107 | 6.0 | 12.0 | 0.00 | 0.00 | 0.00 | 45 | 1008.7 |
| 20260902080055 | 79 | 126 | 8.0 | 16.0 | 0.00 | 0.00 | 0.00 | 43 | 1008.7 |
| 20260902074549 | 79 | 119 | 6.0 | 12.0 | 0.00 | 0.00 | 0.00 | 42 | 1008.7 |
| 20260902073148 | 78 | 124 | 5.0 | 8.0 | 0.00 | 0.00 | 0.00 | 42 | 1008.7 |
| 20260902071547 | 78 | 106 | 4.0 | 10.0 | 0.00 | 0.00 | 0.00 | 42 | 1008.7 |
| 20260902070044 | 78 | 115 | 3.0 | 7.0 | 0.00 | 0.00 | 0.00 | 43 | 1008.6 |
| 20260902064544 | 78 | 99 | 3.0 | 9.0 | 0.00 | 0.00 | 0.00 | 45 | 1008.6 |